Location: ???????
(55.4362°N, 38.1183°E)
Time: 12:20:20
(UTC+00:00)

Nauka - Pass Details

Date: 01 October 2021
Orbit: 417 x 423 km, 51.6° (Epoch: 20 October)

Event Time Altitude Azimuth Distance (km) Brightness Sun altitude
Rises 16:44:38 0° 274° (W) 2,367 ? -15.1°
Reaches altitude 10° 16:47:05 10° 257° (WSW) 1,501 ? -15.5°
Maximum altitude 16:49:36 20° 208° (SSW) 1,044 ? -15.8°
Enters shadow 16:51:10 15° 173° (S) 1,240 ? -16.0°
